Regional Weather Roundup
Issued by NWS

Home | Current Version | Previous Version | Text Only | Print | Product List | Glossary Off
Versions: 1 2 3 4 5 6 7 8 9 10 11 12 13 14 15 16 17 18 19 20 21 22 23 24 25 26 27

000
ASUS45 KBOU 290507
RWRCO

WEATHER ROUNDUP FOR COLORADO
NATIONAL WEATHER SERVICE DENVER/BOULDER CO
1100 PM MDT THU JUL 28 2016

NOTE: "FAIR" INDICATES FEW OR NO CLOUDS BELOW 12000 FEET WITH NO
SIGNIFICANT WEATHER AND/OR OBSTRUCTIONS TO VISIBILITY.

COZ001>005-013-030-031-290600-
...NORTHWEST COLORADO...

CITY           SKY/WX    TMP DP  RH WIND       PRES   REMARKS
CRAIG          FAIR      65  36  34 CALM      30.17R
HAYDEN         FAIR      68  28  22 SW6       30.20R
MEEKER         FAIR      62  39  42 SE3       30.20R
MOUNT WERNER   NOT AVBL
STEAMBOAT SPGS FAIR      62  40  44 CALM      30.22R
WALDEN         FAIR      55  41  58 N3        30.36S
$$

COZ006>008-011-290600-
...WEST CENTRAL VALLEYS...

CITY           SKY/WX    TMP DP  RH WIND       PRES   REMARKS
GRAND JUNCTION FAIR      78  29  16 CALM      30.02R
MONTROSE       FAIR      76  37  24 SE9       30.14R
EAGLE          FAIR      70  34  26 E8        30.22S
RIFLE          FAIR      72  35  25 S3        30.10R
DELTA          NOT AVBL
NUCLA          NOT AVBL
$$

COZ017>023-064>068-290600-
...SOUTHWEST COLORADO...

CITY           SKY/WX    TMP DP  RH WIND       PRES   REMARKS
DURANGO        FAIR      64  40  41 NE7       30.23R
CORTEZ         FAIR      72  39  30 NE8       30.15R
PAGOSA SPRINGS FAIR      66  33  29 CALM      30.35S THUNDER
TELLURIDE      FAIR      63  32  31 CALM      30.48S
WOLF CREEK PAS FAIR      54  32  43 SW18      30.72F
$$

COZ009-010-012-014-032>034-037-058>063-290600-
...CENTRAL COLORADO...

CITY           SKY/WX    TMP DP  RH WIND       PRES   REMARKS
ASPEN          FAIR      62  33  33 SW9       30.32R
BUENA VISTA    FAIR      65  32  29 NW6       30.36R
COPPER MTN     FAIR      59  23  25 W8        30.69S
BERTHOUD PASS  HAZE      43  30  61 NW5       30.71F VSB 1/4
COTTONWOOD PAS FAIR      64  19  17 CALM      30.52R
GUNNISON       FAIR      61  36  39 CALM      30.34F
KREMMLING      FAIR      61  32  33 SE3       30.29R
LEADVILLE      FAIR      53  24  32 E5        30.49S
MONARCH PASS   FAIR      54  32  43 MISG      30.79S
SALIDA         FAIR      72  41  33 SE9       30.38R
SUNLIGHT       NOT AVBL
WILKERSON PASS FOG       50  48  93 E8        30.67R VSB<1/4
$$

COZ069>075-290600-
...SAN LUIS VALLEY/SANGRE DE CRISTO MOUNTAINS...

CITY           SKY/WX    TMP DP  RH WIND       PRES   REMARKS
ALAMOSA        FAIR      67  40  37 SE15      30.29R
LA VETA PASS   FAIR      54  45  71 NE12G18   30.56R
SAGUACHE       FAIR      63  30  29 N6        30.33R
$$

COZ035-036-038>040-290600-
...NORTHERN COLORADO FRONT RANGE...

CITY           SKY/WX    TMP DP  RH WIND       PRES   REMARKS
DENVER INTL AP MOCLDY    67  57  70 E6        30.24R
DMNS CITY PARK   N/A     68  59  72 S3        30.24S
AURORA         CLOUDY    68  60  74 SE7       30.26R
FRONT RANGE AP NOT AVBL
ERIE MUNI ARPT CLOUDY    71  55  57 E3        30.22F
BOULDER MUN AP FAIR      68  55  64 CALM      30.22F
CENTENNIAL     CLOUDY    68  59  73 S5        30.27S
BROOMFIELD     NOT AVBL
LONGMONT       NOT AVBL
$$

COZ041-046-047-076>085-087-088-290600-
...PIKES PEAK/PALMER DIVIDE AND SOUTHERN FOOTHILLS...

CITY           SKY/WX    TMP DP  RH WIND       PRES   REMARKS
COLO. SPRINGS  TSTM      62  59  90 NE13      30.31R
A. F. ACADEMY  CLOUDY    61  57  88 VRB5G20   30.34S
SCHRIEVER AFB  NOT AVBL
ELLICOTT       NOT AVBL
FALCON         NOT AVBL
FORT CARSON    FAIR      62  59  89 N14       30.28R
LIMON          RAIN      63  61  93 E7G22     30.25R FOG
MONUMENT HILL  CLOUDY    61  57  88 E16       30.35S
TRINIDAD       NOT AVBL
$$

COZ042>045-048>051-090-091-290600-
...NORTHEAST COLORADO...

CITY           SKY/WX    TMP DP  RH WIND       PRES   REMARKS
GREELEY ARPT   CLOUDY    66  61  82 N3        30.23R
AKRON          FAIR      62  58  86 SE8       30.22R
BURLINGTON     FAIR      65  59  81 E9        30.18R
WRAY           FAIR      64  61  88 SE6       30.16
STERLING       NOT AVBL
HOLYOKE        NOT AVBL
FORT MORGAN    NOT AVBL
$$

COZ086-089-092>099-290600-
...SOUTHEAST COLORADO...

CITY           SKY/WX    TMP DP  RH WIND       PRES   REMARKS
PUEBLO         FAIR      70  62  76 NE13G28   30.19R
LA JUNTA       FAIR      71  61  70 E17       30.14R
LAMAR          FAIR      67  62  84 SE28G43   30.11F
SPRINGFIELD      N/A     68  61  78 N23G30    30.21R
$$




USA.gov is the U.S. government's official web portal to all federal, state and local government web resources and services.